Погода в Аришке

Россия / Пензенская область     53°38′06″N   45°33′12″E
темп.,
°C
ветер,
м/с
пор.,
м/с
влажн.,
%
обл.,
%
осадки,
мм/ч
давл.,
гПа
погр.,
м
3 марта, ср
ср300:00−5зсз369696 0.2 1004143
03:00−6зсз379793 0.3 1005167
06:00−4сз489896 0.1 1005444
09:00−4сз698798 0.3 1007867
12:00−5сз6989100 0.1 1009790
15:00−4сз6989100 0.3 1010762
18:00−5зсз51091100 0.1 1010801
21:00−6з31091100 0.2 1012373
4 марта, чт
чт400:00−8зюз499783 0.0 1010199
03:00−5зюз5129591 0.1 1008541
06:00−3зюз71393100 0.1 1006791
09:00−2зюз81492100 0.3 1003792
12:000зюз91596100 0.5 10011063
15:000з81497100 0.7 10011022
18:000зюз71397100 0.9 1001830
21:00−1зюз61197100 2.0 1002647
5 марта, пт
пт500:00−1зюз41098100 1.5 1001517
03:00−1юз4898100 2.8 1000422
06:00−3с3597100 2.4 1000231
09:00−4ссв4795100 3.9 1001509
12:00−3ссз469199 0.2 1004590
15:00−4ссз4588100 0.3 1008644
18:00−10ссз229343 0.0 101021
21:00−13ссз009352 0.0 101321
6 марта, сб
сб600:00−12ю1190100 0.0 101421
03:00−12ю1291100 0.0 101421
06:00−13ююз2292100 0.0 101321
09:00−9зюз2494100 0.0 1012215
12:00−7з478962 0.0 1012429
15:00−7зсз588953 0.1 1012740
18:00−11з349497 0.1 101385
21:00−12з369697 0.1 1015147
7 марта, вс
вс700:00−15зсз339892 0.1 101656
03:00−19з229981 0.1 101720
06:00−20юз239814 0.0 101621
09:00−14юз49897 0.0 1015294
12:00−9юз7138063 0.0 1011669
15:00−7юз9158282 0.0 1007899
18:00−7юз91789100 0.1 10041105
21:00−5юз101893100 1.1 10001190